カタログに戻る

KUIPER-00259

運用中通信LEO
NORAD 67786·PAYLOAD·🇺🇸 United States

打ち上げ Feb 12, 2026 から Guiana Space Centre

Loading…

次のパス (今後24時間)

TLE

最新Source: CelesTrak SupGP

元期: Sep 14, 2026, 16:18 UTC

1 67786C 26030Y   26257.67929398 -.00002853  00000+0 -37361-3 0  2579
2 67786  51.8972  82.3928 0000719 112.3872 222.3781 14.79923859    14

AllMySatでKUIPER-00259をリアルタイム追跡

Download on the App Store